User: anonymous   Login
Location: Holcomb Observatory
(44.4922°N, 73.1654°W)
Time: 00:03:36
(UTC-05:00)
Language:

Cosmos 1727 Rocket - Orbit

View from above orbital plane
View from above orbital plane
View from above satellite
View from above satellite

Ground track
Ground track

The orbit data is extracted from the following two-line orbital elements,

1 16511U 86008B   17022.93100528 +.00000010 +00000-0 -49578-5 0  9996
2 16511 082.9468 327.6381 0023626 331.6699 059.7259 13.75809295556045
Epoch (UTC): 22 January 2017 22:20:38
Eccentricity: 0.0023626
inclination: 82.9468°
perigee height: 961 km
apogee height: 996 km
right ascension of ascending node: 327.6381°
argument of perigee: 331.6699°
revolutions per day: 13.75809295
mean anomaly at epoch: 59.7259°
orbit number at epoch: 55604

The dashed part of the orbit path shows where the satellite is in the earth's shadow,  

DLR